WESTFORD NEEDLES, 2361

Orbit data source: Space-Track

WESTFORD NEEDLES, 2361 is space debris in LEO originally from a launch on Thu, 09 May 1963 UTC launched from the Air Force Western Test Range (AFWTR). Debris objects in space refer to the collection of defunct objects orbiting the Earth. Examples of debris include non-operational satellites, rocket bodies, and fragments generated from explosions, collisions, or faulty payload assembly.

Loading next visibility...
Identifier
2361, 1963-014L
Orbit
LEO
Country
Flag of USUS
Related business
Manufacturer
Unknown
Mission
Spacecraft
Bus & Motor
Unknown
Mass
Unknown
Launch date (UTC)
1963-05-09 (62 years ago)
Launch vehicle
Unknown
Launch site
Air Force Western Test Range (AFWTR)
Object type
Payload
Rocket body
Debris
Shape & HBR
Unknown shape, 0.5 m
Radar Cross Section
Medium (>0.1 m² and <1 m²)

Expand to show TLE details & history
Last TLE update: 1 day ago

TLE from 1 day ago
0 WESTFORD NEEDLES
1 02361U 63014L   25300.67615011 -.00000086  00000-0 -40852-1 0  9999
2 02361  87.3770 202.5533 0148253 181.0089 179.0483  8.66275613974877
Epoch: 2025-10-27T16:13Z
TLE epoch observation values (Epoch: 2025-10-27T16:13:39.369Z)
Latitude
-0.00003°
Longitude
-77.13532°
Altitude
3,787.06 km
Speed
6.216 km/s
True Right ascension
13h 30m 12s
True Declination
0° 00' 00"
Sunlit
Object was in daylight at epoch
Visualization orbit readout
Latitude
Unknown
Longitude
Unknown
Altitude
Unknown
Speed
Unknown
Apparent Right ascension
Unknown
Apparent Declination
Unknown
Sunlit
N/A
Visualization observer readout
Local Sidereal Time
17:04:02
Azimuth
Unknown
Elevation
Unknown
Doppler factor
Unknown
Orbital elements
Apogee altitude
3,782.663 km
Perigee altitude
3,485.79 km
Semi-major axis
10,012.363 km
Eccentricity
0.01483
Inclination
87.377°
RAAN
202.5533°
Arg. of periapsis
181.0089°
True anomaly
179.076°
Mean anomaly
179.0483°
Eccentric anomaly
179.0622°
Mean motion
2.1664 °/min
Orbital period
166.17 mins
BSTAR
-0.040852
Loading maneuver chart data...
Computing Atmospheric mass density...

Documentation

Showing up to 5 results
|